Year,Month,Day,Hour,Minute,Value (Times are PST for temperature in C)
2018,04,24,00,00,6.10
2018,04,24,00,01,6.10
2018,04,24,00,02,6.00
2018,04,24,00,03,6.00
2018,04,24,00,04,6.00
2018,04,24,00,05,6.00
2018,04,24,00,06,6.00
2018,04,24,00,07,6.00
2018,04,24,00,08,5.90
2018,04,24,00,09,5.90
2018,04,24,00,10,5.90
2018,04,24,00,11,5.90
2018,04,24,00,12,5.90
2018,04,24,00,13,5.90
2018,04,24,00,14,5.80
2018,04,24,00,15,5.80
2018,04,24,00,16,5.80
2018,04,24,00,17,5.80
2018,04,24,00,18,5.80
2018,04,24,00,19,5.80
2018,04,24,00,20,5.70
2018,04,24,00,21,5.70
2018,04,24,00,22,5.70
2018,04,24,00,23,5.70
2018,04,24,00,24,5.60
2018,04,24,00,25,5.60
2018,04,24,00,26,5.60
2018,04,24,00,27,5.50
2018,04,24,00,28,5.50
2018,04,24,00,29,5.50
2018,04,24,00,30,5.40
2018,04,24,00,31,5.40
2018,04,24,00,32,5.40
2018,04,24,00,33,5.40
2018,04,24,00,34,5.40
2018,04,24,00,35,5.40
2018,04,24,00,36,5.40
2018,04,24,00,37,5.40
2018,04,24,00,38,5.40
2018,04,24,00,39,5.30
2018,04,24,00,40,5.30
2018,04,24,00,41,5.30
2018,04,24,00,42,5.30
2018,04,24,00,43,5.30
2018,04,24,00,44,5.30
2018,04,24,00,45,5.30
2018,04,24,00,46,5.30
2018,04,24,00,47,5.30
2018,04,24,00,48,5.30
2018,04,24,00,49,5.30
2018,04,24,00,50,5.30
2018,04,24,00,51,5.20
2018,04,24,00,52,5.20
2018,04,24,00,53,5.20
2018,04,24,00,54,5.20
2018,04,24,00,55,5.20
2018,04,24,00,56,5.20
2018,04,24,00,57,5.20
2018,04,24,00,58,5.10
2018,04,24,00,59,5.10
2018,04,24,01,00,5.10
2018,04,24,01,01,5.10
2018,04,24,01,02,5.10
2018,04,24,01,03,5.10
2018,04,24,01,04,5.00
2018,04,24,01,05,5.00
2018,04,24,01,06,5.00
2018,04,24,01,07,5.00
2018,04,24,01,08,4.90
2018,04,24,01,09,4.90
2018,04,24,01,10,4.90
2018,04,24,01,11,4.90
2018,04,24,01,12,4.80
2018,04,24,01,13,4.80
2018,04,24,01,14,4.80
2018,04,24,01,15,4.80
2018,04,24,01,16,4.80
2018,04,24,01,17,4.80
2018,04,24,01,18,4.80
2018,04,24,01,19,4.80
2018,04,24,01,20,4.80
2018,04,24,01,21,4.80
2018,04,24,01,22,4.80
2018,04,24,01,23,4.80
2018,04,24,01,24,4.80
2018,04,24,01,25,4.80
2018,04,24,01,26,4.80
2018,04,24,01,27,4.80
2018,04,24,01,28,4.80
2018,04,24,01,29,4.80
2018,04,24,01,30,4.80
2018,04,24,01,31,4.80
2018,04,24,01,32,4.80
2018,04,24,01,33,4.80
2018,04,24,01,34,4.80
2018,04,24,01,35,4.80
2018,04,24,01,36,4.80
2018,04,24,01,37,4.80
2018,04,24,01,38,4.80
2018,04,24,01,39,4.80
2018,04,24,01,40,4.70
2018,04,24,01,41,4.70
2018,04,24,01,42,4.70
2018,04,24,01,43,4.60
2018,04,24,01,44,4.60
2018,04,24,01,45,4.50
2018,04,24,01,46,4.40
2018,04,24,01,47,4.40
2018,04,24,01,48,4.40
2018,04,24,01,49,4.40
2018,04,24,01,50,4.30
2018,04,24,01,51,4.30
2018,04,24,01,52,4.30
2018,04,24,01,53,4.30
2018,04,24,01,54,4.30
2018,04,24,01,55,4.30
2018,04,24,01,56,4.30
2018,04,24,01,57,4.30
2018,04,24,01,58,4.30
2018,04,24,01,59,4.30
2018,04,24,02,00,4.30
2018,04,24,02,01,4.30
2018,04,24,02,02,4.30
2018,04,24,02,03,4.30
2018,04,24,02,04,4.30
2018,04,24,02,05,4.30
2018,04,24,02,06,4.30
2018,04,24,02,07,4.30
2018,04,24,02,08,4.30
2018,04,24,02,09,4.30
2018,04,24,02,10,4.30
2018,04,24,02,11,4.20
2018,04,24,02,12,4.20
2018,04,24,02,13,4.10
2018,04,24,02,14,4.10
2018,04,24,02,15,4.00
2018,04,24,02,16,4.00
2018,04,24,02,17,3.90
2018,04,24,02,18,3.90
2018,04,24,02,19,3.80
2018,04,24,02,20,3.80
2018,04,24,02,21,3.80
2018,04,24,02,22,3.80
2018,04,24,02,23,3.80
2018,04,24,02,24,3.80
2018,04,24,02,25,3.80
2018,04,24,02,26,3.80
2018,04,24,02,27,3.80
2018,04,24,02,28,3.80
2018,04,24,02,29,3.80
2018,04,24,02,30,3.70
2018,04,24,02,31,3.80
2018,04,24,02,32,3.80
2018,04,24,02,33,3.80
2018,04,24,02,34,3.80
2018,04,24,02,35,3.80
2018,04,24,02,36,3.80
2018,04,24,02,37,3.80
2018,04,24,02,38,3.80
2018,04,24,02,39,3.70
2018,04,24,02,40,3.70
2018,04,24,02,41,3.70
2018,04,24,02,42,3.70
2018,04,24,02,43,3.70
2018,04,24,02,44,3.70
2018,04,24,02,45,3.70
2018,04,24,02,46,3.70
2018,04,24,02,47,3.70
2018,04,24,02,48,3.70
2018,04,24,02,49,3.60
2018,04,24,02,50,3.60
2018,04,24,02,51,3.60
2018,04,24,02,52,3.60
2018,04,24,02,53,3.60
2018,04,24,02,54,3.60
2018,04,24,02,55,3.60
2018,04,24,02,56,3.60
2018,04,24,02,57,3.60
2018,04,24,02,58,3.60
2018,04,24,02,59,3.60
2018,04,24,03,00,3.60
2018,04,24,03,01,3.60
2018,04,24,03,02,3.60
2018,04,24,03,03,3.50
2018,04,24,03,04,3.50
2018,04,24,03,05,3.50
2018,04,24,03,06,3.50
2018,04,24,03,07,3.50
2018,04,24,03,08,3.50
2018,04,24,03,09,3.40
2018,04,24,03,10,3.40
2018,04,24,03,11,3.40
2018,04,24,03,12,3.40
2018,04,24,03,13,3.40
2018,04,24,03,14,3.40
2018,04,24,03,15,3.40
2018,04,24,03,16,3.40
2018,04,24,03,17,3.40
2018,04,24,03,18,3.40
2018,04,24,03,19,3.40
2018,04,24,03,20,3.40
2018,04,24,03,21,3.40
2018,04,24,03,22,3.30
2018,04,24,03,23,3.30
2018,04,24,03,24,3.30
2018,04,24,03,25,3.30
2018,04,24,03,26,3.30
2018,04,24,03,27,3.30
2018,04,24,03,28,3.30
2018,04,24,03,29,3.30
2018,04,24,03,30,3.30
2018,04,24,03,31,3.30
2018,04,24,03,32,3.30
2018,04,24,03,33,3.20
2018,04,24,03,34,3.20
2018,04,24,03,35,3.20
2018,04,24,03,36,3.20
2018,04,24,03,37,3.20
2018,04,24,03,38,3.20
2018,04,24,03,39,3.20
2018,04,24,03,40,3.20
2018,04,24,03,41,3.20
2018,04,24,03,42,3.20
2018,04,24,03,43,3.20
2018,04,24,03,44,3.20
2018,04,24,03,45,3.20
2018,04,24,03,46,3.20
2018,04,24,03,47,3.20
2018,04,24,03,48,3.20
2018,04,24,03,49,3.20
2018,04,24,03,50,3.20
2018,04,24,03,51,3.10
2018,04,24,03,52,3.10
2018,04,24,03,53,3.10
2018,04,24,03,54,3.10
2018,04,24,03,55,3.10
2018,04,24,03,56,3.10
2018,04,24,03,57,3.10
2018,04,24,03,58,3.10
2018,04,24,03,59,3.10
2018,04,24,04,00,3.10
2018,04,24,04,01,3.10
2018,04,24,04,02,3.10
2018,04,24,04,03,3.10
2018,04,24,04,04,3.10
2018,04,24,04,05,3.10
2018,04,24,04,06,3.00
2018,04,24,04,07,3.00
2018,04,24,04,08,3.00
2018,04,24,04,09,3.00
2018,04,24,04,10,3.00
2018,04,24,04,11,2.90
2018,04,24,04,12,2.90
2018,04,24,04,13,2.90
2018,04,24,04,14,2.90
2018,04,24,04,15,2.90
2018,04,24,04,16,2.80
2018,04,24,04,17,2.80
2018,04,24,04,18,2.80
2018,04,24,04,19,2.80
2018,04,24,04,20,2.80
2018,04,24,04,21,2.80
2018,04,24,04,22,2.80
2018,04,24,04,23,2.80
2018,04,24,04,24,2.80
2018,04,24,04,25,2.80
2018,04,24,04,26,2.80
2018,04,24,04,27,2.80
2018,04,24,04,28,2.80
2018,04,24,04,29,2.80
2018,04,24,04,30,2.80
2018,04,24,04,31,2.70
2018,04,24,04,32,2.70
2018,04,24,04,33,2.70
2018,04,24,04,34,2.70
2018,04,24,04,35,2.70
2018,04,24,04,36,2.70
2018,04,24,04,37,2.70
2018,04,24,04,38,2.70
2018,04,24,04,39,2.70
2018,04,24,04,40,2.70
2018,04,24,04,41,2.70
2018,04,24,04,42,2.70
2018,04,24,04,43,2.70
2018,04,24,04,44,2.70
2018,04,24,04,45,2.70
2018,04,24,04,46,2.70
2018,04,24,04,47,2.70
2018,04,24,04,48,2.70
2018,04,24,04,49,2.60
2018,04,24,04,50,2.60
2018,04,24,04,51,2.60
2018,04,24,04,52,2.60
2018,04,24,04,53,2.60
2018,04,24,04,54,2.50
2018,04,24,04,55,2.50
2018,04,24,04,56,2.50
2018,04,24,04,57,2.50
2018,04,24,04,58,2.50
2018,04,24,04,59,2.50
2018,04,24,05,00,2.40
2018,04,24,05,01,2.40
2018,04,24,05,02,2.40
2018,04,24,05,03,2.40
2018,04,24,05,04,2.40
2018,04,24,05,05,2.40
2018,04,24,05,06,2.40
2018,04,24,05,07,2.40
2018,04,24,05,08,2.30
2018,04,24,05,09,2.30
2018,04,24,05,10,2.30
2018,04,24,05,11,2.30
2018,04,24,05,12,2.30
2018,04,24,05,13,2.30
2018,04,24,05,14,2.30
2018,04,24,05,15,2.30
2018,04,24,05,16,2.30
2018,04,24,05,17,2.30
2018,04,24,05,18,2.30
2018,04,24,05,19,2.30
2018,04,24,05,20,2.30
2018,04,24,05,21,2.30
2018,04,24,05,22,2.20
2018,04,24,05,23,2.20
2018,04,24,05,24,2.20
2018,04,24,05,25,2.20
2018,04,24,05,26,2.20
2018,04,24,05,27,2.20
2018,04,24,05,28,2.20
2018,04,24,05,29,2.20
2018,04,24,05,30,2.20
2018,04,24,05,31,2.20
2018,04,24,05,32,2.20
2018,04,24,05,33,2.20
2018,04,24,05,34,2.20
2018,04,24,05,35,2.20
2018,04,24,05,36,2.10
2018,04,24,05,37,2.20
2018,04,24,05,38,2.20
2018,04,24,05,39,2.20
2018,04,24,05,40,2.20
2018,04,24,05,41,2.10
2018,04,24,05,42,2.10
2018,04,24,05,43,2.10
2018,04,24,05,44,2.10
2018,04,24,05,45,2.00
2018,04,24,05,46,2.00
2018,04,24,05,47,2.00
2018,04,24,05,48,2.00
2018,04,24,05,49,2.00
2018,04,24,05,50,2.00
2018,04,24,05,51,1.90
2018,04,24,05,52,1.90
2018,04,24,05,53,1.90
2018,04,24,05,54,1.90
2018,04,24,05,55,1.90
2018,04,24,05,56,1.90
2018,04,24,05,57,1.90
2018,04,24,05,58,1.90
2018,04,24,05,59,1.80
2018,04,24,06,00,1.80
2018,04,24,06,01,1.80
2018,04,24,06,02,1.80
2018,04,24,06,03,1.80
2018,04,24,06,04,1.80
2018,04,24,06,05,1.80
2018,04,24,06,06,1.80
2018,04,24,06,07,1.80
2018,04,24,06,08,1.80
2018,04,24,06,09,1.80
2018,04,24,06,10,1.80
2018,04,24,06,11,1.80
2018,04,24,06,12,1.80
2018,04,24,06,13,1.80
2018,04,24,06,14,1.80
2018,04,24,06,15,1.80
2018,04,24,06,16,1.70
2018,04,24,06,17,1.70
2018,04,24,06,18,1.70
2018,04,24,06,19,1.70
2018,04,24,06,20,1.70
2018,04,24,06,21,1.70
2018,04,24,06,22,1.70
2018,04,24,06,23,1.70
2018,04,24,06,24,1.70
2018,04,24,06,25,1.70
2018,04,24,06,26,1.70
2018,04,24,06,27,1.70
2018,04,24,06,28,1.70
2018,04,24,06,29,1.70
2018,04,24,06,30,1.70
2018,04,24,06,31,1.70
2018,04,24,06,32,1.70
2018,04,24,06,33,1.70
2018,04,24,06,34,1.70
2018,04,24,06,35,1.70
2018,04,24,06,36,1.70
2018,04,24,06,37,1.70
2018,04,24,06,38,1.60
2018,04,24,06,39,1.60
2018,04,24,06,40,1.50
2018,04,24,06,41,1.50
2018,04,24,06,42,1.50
2018,04,24,06,43,1.40
2018,04,24,06,44,1.40
2018,04,24,06,45,1.40
2018,04,24,06,46,1.40
2018,04,24,06,47,1.40
2018,04,24,06,48,1.40
2018,04,24,06,49,1.40
2018,04,24,06,50,1.40
2018,04,24,06,51,1.40
2018,04,24,06,52,1.40
2018,04,24,06,53,1.40
2018,04,24,06,54,1.40
2018,04,24,06,55,1.40
2018,04,24,06,56,1.40
2018,04,24,06,57,1.40
2018,04,24,06,58,1.40
2018,04,24,06,59,1.40
2018,04,24,07,00,1.40
2018,04,24,07,01,1.40
2018,04,24,07,02,1.40
2018,04,24,07,03,1.40
2018,04,24,07,04,1.50
2018,04,24,07,05,1.50
2018,04,24,07,06,1.50
2018,04,24,07,07,1.60
2018,04,24,07,08,1.60
2018,04,24,07,09,1.60
2018,04,24,07,10,1.70
2018,04,24,07,11,1.70
2018,04,24,07,12,1.70
2018,04,24,07,13,1.80
2018,04,24,07,14,1.80
2018,04,24,07,15,1.80
2018,04,24,07,16,1.80
2018,04,24,07,17,1.90
2018,04,24,07,18,1.90
2018,04,24,07,19,2.00
2018,04,24,07,20,2.00
2018,04,24,07,21,2.10
2018,04,24,07,22,2.10
2018,04,24,07,23,2.20
2018,04,24,07,24,2.20
2018,04,24,07,25,2.20
2018,04,24,07,26,2.20
2018,04,24,07,27,2.30
2018,04,24,07,28,2.30
2018,04,24,07,29,2.30
2018,04,24,07,30,2.30
2018,04,24,07,31,2.30
2018,04,24,07,32,2.30
2018,04,24,07,33,2.30
2018,04,24,07,34,2.40
2018,04,24,07,35,2.40
2018,04,24,07,36,2.40
2018,04,24,07,37,2.40
2018,04,24,07,38,2.50
2018,04,24,07,39,2.50
2018,04,24,07,40,2.60
2018,04,24,07,41,2.60
2018,04,24,07,42,2.60
2018,04,24,07,43,2.70
2018,04,24,07,44,2.70
2018,04,24,07,45,2.80
2018,04,24,07,46,2.80
2018,04,24,07,47,2.80
2018,04,24,07,48,2.90
2018,04,24,07,49,2.90
2018,04,24,07,50,3.00
2018,04,24,07,51,3.00
2018,04,24,07,52,3.10
2018,04,24,07,53,3.10
2018,04,24,07,54,3.20
2018,04,24,07,55,3.20
2018,04,24,07,56,3.30
2018,04,24,07,57,3.30
2018,04,24,07,58,3.40
2018,04,24,07,59,3.40
2018,04,24,08,00,3.40
2018,04,24,08,01,3.50
2018,04,24,08,02,3.50
2018,04,24,08,03,3.60
2018,04,24,08,04,3.70
2018,04,24,08,05,3.80
2018,04,24,08,06,3.90
2018,04,24,08,07,4.00
2018,04,24,08,08,4.10
2018,04,24,08,09,4.20
2018,04,24,08,10,4.40
2018,04,24,08,11,4.50
2018,04,24,08,12,4.60
2018,04,24,08,13,4.70
2018,04,24,08,14,4.80
2018,04,24,08,15,4.90
2018,04,24,08,16,5.00
2018,04,24,08,17,5.10
2018,04,24,08,18,5.20
2018,04,24,08,19,5.30
2018,04,24,08,20,5.40
2018,04,24,08,21,5.60
2018,04,24,08,22,5.70
2018,04,24,08,23,5.80
2018,04,24,08,24,5.90
2018,04,24,08,25,6.00
2018,04,24,08,26,6.10
2018,04,24,08,27,6.20
2018,04,24,08,28,6.30
2018,04,24,08,29,6.50
2018,04,24,08,30,6.50
2018,04,24,08,31,6.70
2018,04,24,08,32,6.80
2018,04,24,08,33,6.90
2018,04,24,08,34,7.00
2018,04,24,08,35,7.10
2018,04,24,08,36,7.20
2018,04,24,08,37,7.30
2018,04,24,08,38,7.40
2018,04,24,08,39,7.50
2018,04,24,08,40,7.60
2018,04,24,08,41,7.70
2018,04,24,08,42,7.80
2018,04,24,08,43,7.90
2018,04,24,08,44,8.00
2018,04,24,08,45,8.10
2018,04,24,08,46,8.20
2018,04,24,08,47,8.30
2018,04,24,08,48,8.40
2018,04,24,08,49,8.60
2018,04,24,08,50,8.70
2018,04,24,08,51,8.80
2018,04,24,08,52,8.90
2018,04,24,08,53,9.00
2018,04,24,08,54,9.10
2018,04,24,08,55,9.20
2018,04,24,08,56,9.30
2018,04,24,08,57,9.40
2018,04,24,08,58,9.60
2018,04,24,08,59,9.70
2018,04,24,09,00,9.80
2018,04,24,09,01,9.90
2018,04,24,09,02,10.10
2018,04,24,09,03,10.20
2018,04,24,09,04,10.30
2018,04,24,09,05,10.40
2018,04,24,09,06,10.60
2018,04,24,09,07,10.70
2018,04,24,09,08,10.80
2018,04,24,09,09,10.90
2018,04,24,09,10,11.00
2018,04,24,09,11,11.20
2018,04,24,09,12,11.30
2018,04,24,09,13,11.40
2018,04,24,09,14,11.40
2018,04,24,09,15,11.50
2018,04,24,09,16,11.60
2018,04,24,09,17,11.70
2018,04,24,09,18,11.80
2018,04,24,09,19,11.80
2018,04,24,09,20,11.90
2018,04,24,09,21,11.90
2018,04,24,09,22,12.00
2018,04,24,09,23,12.00
2018,04,24,09,24,12.10
2018,04,24,09,25,12.10
2018,04,24,09,26,12.20
2018,04,24,09,27,12.20
2018,04,24,09,28,12.20
2018,04,24,09,29,12.20
2018,04,24,09,30,12.20
2018,04,24,09,31,12.20
2018,04,24,09,32,12.30
2018,04,24,09,33,12.30
2018,04,24,09,34,12.30
2018,04,24,09,35,12.40
2018,04,24,09,36,12.40
2018,04,24,09,37,12.50
2018,04,24,09,38,12.50
2018,04,24,09,39,12.50
2018,04,24,09,40,12.50
2018,04,24,09,41,12.40
2018,04,24,09,42,12.40
2018,04,24,09,43,12.40
2018,04,24,09,44,12.40
2018,04,24,09,45,12.40
2018,04,24,09,46,12.40
2018,04,24,09,47,12.50
2018,04,24,09,48,12.50
2018,04,24,09,49,12.60
2018,04,24,09,50,12.60
2018,04,24,09,51,12.70
2018,04,24,09,52,12.70
2018,04,24,09,53,12.80
2018,04,24,09,54,12.80
2018,04,24,09,55,12.80
2018,04,24,09,56,12.80
2018,04,24,09,57,12.80
2018,04,24,09,58,12.80
2018,04,24,09,59,12.80
2018,04,24,10,00,12.90
2018,04,24,10,01,12.90
2018,04,24,10,02,12.90
2018,04,24,10,03,12.90
2018,04,24,10,04,12.90
2018,04,24,10,05,12.90
2018,04,24,10,06,12.90
2018,04,24,10,07,12.90
2018,04,24,10,08,12.90
2018,04,24,10,09,13.00
2018,04,24,10,10,13.00
2018,04,24,10,11,13.10
2018,04,24,10,12,13.20
2018,04,24,10,13,13.20
2018,04,24,10,14,13.30
2018,04,24,10,15,13.30
2018,04,24,10,16,13.30
2018,04,24,10,17,13.30
2018,04,24,10,18,13.40
2018,04,24,10,19,13.40
2018,04,24,10,20,13.40
2018,04,24,10,21,13.40
2018,04,24,10,22,13.40
2018,04,24,10,23,13.50
2018,04,24,10,24,13.40
2018,04,24,10,25,13.50
2018,04,24,10,26,13.50
2018,04,24,10,27,13.60
2018,04,24,10,28,13.60
2018,04,24,10,29,13.60
2018,04,24,10,30,13.70
2018,04,24,10,31,13.70
2018,04,24,10,32,13.80
2018,04,24,10,33,13.80
2018,04,24,10,34,13.90
2018,04,24,10,35,13.90
2018,04,24,10,36,13.90
2018,04,24,10,37,13.90
2018,04,24,10,38,13.90
2018,04,24,10,39,14.00
2018,04,24,10,40,14.10
2018,04,24,10,41,14.10
2018,04,24,10,42,14.10
2018,04,24,10,43,14.20
2018,04,24,10,44,14.20
2018,04,24,10,45,14.30
2018,04,24,10,46,14.30
2018,04,24,10,47,14.30
2018,04,24,10,48,14.30
2018,04,24,10,49,14.30
2018,04,24,10,50,14.40
2018,04,24,10,51,14.40
2018,04,24,10,52,14.50
2018,04,24,10,53,14.50
2018,04,24,10,54,14.60
2018,04,24,10,55,14.60
2018,04,24,10,56,14.70
2018,04,24,10,57,14.70
2018,04,24,10,58,14.70
2018,04,24,10,59,14.70
2018,04,24,11,00,14.60
2018,04,24,11,01,14.60
2018,04,24,11,02,14.60
2018,04,24,11,03,14.60
2018,04,24,11,04,14.60
2018,04,24,11,05,14.50
2018,04,24,11,06,14.50
2018,04,24,11,07,14.60
2018,04,24,11,08,14.60
2018,04,24,11,09,14.70
2018,04,24,11,10,14.70
2018,04,24,11,11,14.80
2018,04,24,11,12,14.90
2018,04,24,11,13,14.90
2018,04,24,11,14,14.90
2018,04,24,11,15,14.90
2018,04,24,11,16,15.00
2018,04,24,11,17,15.00
2018,04,24,11,18,15.10
2018,04,24,11,19,15.10
2018,04,24,11,20,15.20
2018,04,24,11,21,15.20
2018,04,24,11,22,15.20
2018,04,24,11,23,15.20
2018,04,24,11,24,15.20
2018,04,24,11,25,15.10
2018,04,24,11,26,15.10
2018,04,24,11,27,15.10
2018,04,24,11,28,15.10
2018,04,24,11,29,15.20
2018,04,24,11,30,15.20
2018,04,24,11,31,15.10
2018,04,24,11,32,15.10
2018,04,24,11,33,15.10
2018,04,24,11,34,15.10
2018,04,24,11,35,15.20
2018,04,24,11,36,15.20
2018,04,24,11,37,15.20
2018,04,24,11,38,15.20
2018,04,24,11,39,15.20
2018,04,24,11,40,15.30
2018,04,24,11,41,15.30
2018,04,24,11,42,15.40
2018,04,24,11,43,15.40
2018,04,24,11,44,15.40
2018,04,24,11,45,15.40
2018,04,24,11,46,15.50
2018,04,24,11,47,15.50
2018,04,24,11,48,15.40
2018,04,24,11,49,15.40
2018,04,24,11,50,15.40
2018,04,24,11,51,15.40
2018,04,24,11,52,15.50
2018,04,24,11,53,15.60
2018,04,24,11,54,15.70
2018,04,24,11,55,15.70
2018,04,24,11,56,15.70
2018,04,24,11,57,15.70
2018,04,24,11,58,15.80
2018,04,24,11,59,15.80
2018,04,24,12,00,15.80
2018,04,24,12,01,15.90
2018,04,24,12,02,15.90
2018,04,24,12,03,15.90
2018,04,24,12,04,15.90
2018,04,24,12,05,15.90
2018,04,24,12,06,15.90
2018,04,24,12,07,15.90
2018,04,24,12,08,15.90
2018,04,24,12,09,15.90
2018,04,24,12,10,16.00
2018,04,24,12,11,16.00
2018,04,24,12,12,16.10
2018,04,24,12,13,16.10
2018,04,24,12,14,16.20
2018,04,24,12,15,16.20
2018,04,24,12,16,16.30
2018,04,24,12,17,16.30
2018,04,24,12,18,16.30
2018,04,24,12,19,16.40
2018,04,24,12,20,16.40
2018,04,24,12,21,16.50
2018,04,24,12,22,16.50
2018,04,24,12,23,16.50
2018,04,24,12,24,16.50
2018,04,24,12,25,16.50
2018,04,24,12,26,16.40
2018,04,24,12,27,16.40
2018,04,24,12,28,16.40
2018,04,24,12,29,16.50
2018,04,24,12,30,16.50
2018,04,24,12,31,16.50
2018,04,24,12,32,16.50
2018,04,24,12,33,16.40
2018,04,24,12,34,16.30
2018,04,24,12,35,16.30
2018,04,24,12,36,16.30
2018,04,24,12,37,16.30
2018,04,24,12,38,16.30
2018,04,24,12,39,16.30
2018,04,24,12,40,16.40
2018,04,24,12,41,16.40
2018,04,24,12,42,16.40
2018,04,24,12,43,16.50
2018,04,24,12,44,16.60
2018,04,24,12,45,16.70
2018,04,24,12,46,16.80
2018,04,24,12,47,16.90
2018,04,24,12,48,17.00
2018,04,24,12,49,17.10
2018,04,24,12,50,17.20
2018,04,24,12,51,17.20
2018,04,24,12,52,17.20
2018,04,24,12,53,17.30
2018,04,24,12,54,17.30
2018,04,24,12,55,17.30
2018,04,24,12,56,17.30
2018,04,24,12,57,17.30
2018,04,24,12,58,17.30
2018,04,24,12,59,17.30
2018,04,24,13,00,17.30
2018,04,24,13,01,17.20
2018,04,24,13,02,17.10
2018,04,24,13,03,17.10
2018,04,24,13,04,17.10
2018,04,24,13,05,17.00
2018,04,24,13,06,17.10
2018,04,24,13,07,17.10
2018,04,24,13,08,17.10
2018,04,24,13,09,17.10
2018,04,24,13,10,17.00
2018,04,24,13,11,16.90
2018,04,24,13,12,16.90
2018,04,24,13,13,16.90
2018,04,24,13,14,16.90
2018,04,24,13,15,16.90
2018,04,24,13,16,16.90
2018,04,24,13,17,16.90
2018,04,24,13,18,17.00
2018,04,24,13,19,17.10
2018,04,24,13,20,17.10
2018,04,24,13,21,17.20
2018,04,24,13,22,17.30
2018,04,24,13,23,17.40
2018,04,24,13,24,17.40
2018,04,24,13,25,17.50
2018,04,24,13,26,17.60
2018,04,24,13,27,17.70
2018,04,24,13,28,17.80
2018,04,24,13,29,17.90
2018,04,24,13,30,17.90
2018,04,24,13,31,17.90
2018,04,24,13,32,17.90
2018,04,24,13,33,17.90
2018,04,24,13,34,18.00
2018,04,24,13,35,18.10
2018,04,24,13,36,18.10
2018,04,24,13,37,18.20
2018,04,24,13,38,18.20
2018,04,24,13,39,18.20
2018,04,24,13,40,18.20
2018,04,24,13,41,18.20
2018,04,24,13,42,18.20
2018,04,24,13,43,18.20
2018,04,24,13,44,18.30
2018,04,24,13,45,18.30
2018,04,24,13,46,18.40
2018,04,24,13,47,18.50
2018,04,24,13,48,18.60
2018,04,24,13,49,18.60
2018,04,24,13,50,18.70
2018,04,24,13,51,18.70
2018,04,24,13,52,18.70
2018,04,24,13,53,18.70
2018,04,24,13,54,18.70
2018,04,24,13,55,18.70
2018,04,24,13,56,18.80
2018,04,24,13,57,18.70
2018,04,24,13,58,18.70
2018,04,24,13,59,18.70
2018,04,24,14,00,18.70
2018,04,24,14,01,18.60
2018,04,24,14,02,18.60
2018,04,24,14,03,18.70
2018,04,24,14,04,18.80
2018,04,24,14,05,18.90
2018,04,24,14,06,19.00
2018,04,24,14,07,19.10
2018,04,24,14,08,19.20
2018,04,24,14,09,19.20
2018,04,24,14,10,19.10
2018,04,24,14,11,19.10
2018,04,24,14,12,18.90
2018,04,24,14,13,18.90
2018,04,24,14,14,18.90
2018,04,24,14,15,18.80
2018,04,24,14,16,18.80
2018,04,24,14,17,18.70
2018,04,24,14,18,18.50
2018,04,24,14,19,18.40
2018,04,24,14,20,18.40
2018,04,24,14,21,18.30
2018,04,24,14,22,18.30
2018,04,24,14,23,18.40
2018,04,24,14,24,18.40
2018,04,24,14,25,18.40
2018,04,24,14,26,18.30
2018,04,24,14,27,18.30
2018,04,24,14,28,18.30
2018,04,24,14,29,18.30
2018,04,24,14,30,18.40
2018,04,24,14,31,18.50
2018,04,24,14,32,18.50
2018,04,24,14,33,18.60
2018,04,24,14,34,18.70
2018,04,24,14,35,18.70
2018,04,24,14,36,18.80
2018,04,24,14,37,18.80
2018,04,24,14,38,18.90
2018,04,24,14,39,19.00
2018,04,24,14,40,19.10
2018,04,24,14,41,19.20
2018,04,24,14,42,19.30
2018,04,24,14,43,19.30
2018,04,24,14,44,19.30
2018,04,24,14,45,19.30
2018,04,24,14,46,19.30
2018,04,24,14,47,19.20
2018,04,24,14,48,19.20
2018,04,24,14,49,19.20
2018,04,24,14,50,19.30
2018,04,24,14,51,19.30
2018,04,24,14,52,19.20
2018,04,24,14,53,19.20
2018,04,24,14,54,19.20
2018,04,24,14,55,19.20
2018,04,24,14,56,19.10
2018,04,24,14,57,19.10
2018,04,24,14,58,19.00
2018,04,24,14,59,19.00
2018,04,24,15,00,18.90
2018,04,24,15,01,18.80
2018,04,24,15,02,18.70
2018,04,24,15,03,18.70
2018,04,24,15,04,18.70
2018,04,24,15,05,18.70
2018,04,24,15,06,18.70
2018,04,24,15,07,18.80
2018,04,24,15,08,18.90
2018,04,24,15,09,18.90
2018,04,24,15,10,19.00
2018,04,24,15,11,19.00
2018,04,24,15,12,19.00
2018,04,24,15,13,19.10
2018,04,24,15,14,19.10
2018,04,24,15,15,19.20
2018,04,24,15,16,19.20
2018,04,24,15,17,19.10
2018,04,24,15,18,19.10
2018,04,24,15,19,19.10
2018,04,24,15,20,19.10
2018,04,24,15,21,19.10
2018,04,24,15,22,19.20
2018,04,24,15,23,19.20
2018,04,24,15,24,19.20
2018,04,24,15,25,19.20
2018,04,24,15,26,19.30
2018,04,24,15,27,19.30
2018,04,24,15,28,19.30
2018,04,24,15,29,19.40
2018,04,24,15,30,19.40
2018,04,24,15,31,19.40
2018,04,24,15,32,19.40
2018,04,24,15,33,19.40
2018,04,24,15,34,19.40
2018,04,24,15,35,19.40
2018,04,24,15,36,19.40
2018,04,24,15,37,19.40
2018,04,24,15,38,19.50
2018,04,24,15,39,19.60
2018,04,24,15,40,19.70
2018,04,24,15,41,19.80
2018,04,24,15,42,19.90
2018,04,24,15,43,19.90
2018,04,24,15,44,20.00
2018,04,24,15,45,20.10
2018,04,24,15,46,20.10
2018,04,24,15,47,20.20
2018,04,24,15,48,20.20
2018,04,24,15,49,20.20
2018,04,24,15,50,20.20
2018,04,24,15,51,20.20
2018,04,24,15,52,20.20
2018,04,24,15,53,20.20
2018,04,24,15,54,20.20
2018,04,24,15,55,20.20
2018,04,24,15,56,20.10
2018,04,24,15,57,20.10
2018,04,24,15,58,20.10
2018,04,24,15,59,20.10
2018,04,24,16,00,20.10
2018,04,24,16,01,20.10
2018,04,24,16,02,20.10
2018,04,24,16,03,20.10
2018,04,24,16,04,20.10
2018,04,24,16,05,20.20
2018,04,24,16,06,20.20
2018,04,24,16,07,20.30
2018,04,24,16,08,20.40
2018,04,24,16,09,20.40
2018,04,24,16,10,20.40
2018,04,24,16,11,20.50
2018,04,24,16,12,20.60
2018,04,24,16,13,20.50
2018,04,24,16,14,20.50
2018,04,24,16,15,20.40
2018,04,24,16,16,20.40
2018,04,24,16,17,20.40
2018,04,24,16,18,20.40
2018,04,24,16,19,20.40
2018,04,24,16,20,20.50
2018,04,24,16,21,20.60
2018,04,24,16,22,20.60
2018,04,24,16,23,20.60
2018,04,24,16,24,20.50
2018,04,24,16,25,20.40
2018,04,24,16,26,20.40
2018,04,24,16,27,20.40
2018,04,24,16,28,20.40
2018,04,24,16,29,20.50
2018,04,24,16,30,20.50
2018,04,24,16,31,20.50
2018,04,24,16,32,20.50
2018,04,24,16,33,20.50
2018,04,24,16,34,20.50
2018,04,24,16,35,20.50
2018,04,24,16,36,20.60
2018,04,24,16,37,20.60
2018,04,24,16,38,20.70
2018,04,24,16,39,20.70
2018,04,24,16,40,20.80
2018,04,24,16,41,20.80
2018,04,24,16,42,20.80
2018,04,24,16,43,20.90
2018,04,24,16,44,20.90
2018,04,24,16,45,20.90
2018,04,24,16,46,21.00
2018,04,24,16,47,21.00
2018,04,24,16,48,21.10
2018,04,24,16,49,21.10
2018,04,24,16,50,21.10
2018,04,24,16,51,21.10
2018,04,24,16,52,21.10
2018,04,24,16,53,21.10
2018,04,24,16,54,21.10
2018,04,24,16,55,21.10
2018,04,24,16,56,21.10
2018,04,24,16,57,21.00
2018,04,24,16,58,21.10
2018,04,24,16,59,21.10
2018,04,24,17,00,21.00
2018,04,24,17,01,20.90
2018,04,24,17,02,20.80
2018,04,24,17,03,20.70
2018,04,24,17,04,20.60
2018,04,24,17,05,20.60
2018,04,24,17,06,20.60
2018,04,24,17,07,20.60
2018,04,24,17,08,20.60
2018,04,24,17,09,20.70
2018,04,24,17,10,20.70
2018,04,24,17,11,20.80
2018,04,24,17,12,20.80
2018,04,24,17,13,20.80
2018,04,24,17,14,20.80
2018,04,24,17,15,20.70
2018,04,24,17,16,20.70
2018,04,24,17,17,20.70
2018,04,24,17,18,20.70
2018,04,24,17,19,20.70
2018,04,24,17,20,20.70
2018,04,24,17,21,20.80
2018,04,24,17,22,20.80
2018,04,24,17,23,20.90
2018,04,24,17,24,20.90
2018,04,24,17,25,20.90
2018,04,24,17,26,20.90
2018,04,24,17,27,20.90
2018,04,24,17,28,20.90
2018,04,24,17,29,20.80
2018,04,24,17,30,20.80
2018,04,24,17,31,20.90
2018,04,24,17,32,20.90
2018,04,24,17,33,21.00
2018,04,24,17,34,21.00
2018,04,24,17,35,21.10
2018,04,24,17,36,21.10
2018,04,24,17,37,21.00
2018,04,24,17,38,21.00
2018,04,24,17,39,20.90
2018,04,24,17,40,20.90
2018,04,24,17,41,20.90
2018,04,24,17,42,20.90
2018,04,24,17,43,20.90